Tracking 20942 objects as of 15-Jul-2020
HD Live streaming from Space Station
objects crossing your sky now

THOR ABLESTAR DEB

Track THOR ABLESTAR DEB now!
10-day predictions


NORAD ID: 2432
Int'l Code: 1963-049G
Perigee: 1,061.5 km
Apogee: 1,113.2 km
Inclination: 89.9 °
Period: 106.8 minutes
Semi major axis: 7458 km
RCS: 0.149 m2 (medium)
Launch date: December 5, 1963
Source: United States (US)
Launch site: AIR FORCE WESTERN TEST RANGE (AFWTR)

Note: This is SATELLITE DEBRIS
aabbcc
Your satellite tracking list
Your tracking list is empty




NASA's NSSDC Master Catalog

Two Line Element Set (TLE):
1  2432U 63049G   20196.54845122 +.00000017 +00000-0 +11758-4 0  9996
2  2432 089.9057 090.4359 0034640 347.9995 128.8938 13.47843380781202
Source of the keplerian elements: AFSPC